DECAYED
Showing default

FLOCK 1C 8, 40040 (Decayed)

Orbit data source: Space-Track

FLOCK 1C 8, 40040 was a payload satellite owned by Planet Labs (US) in LEO that was launched on Thu, 19 Jun 2014 UTC via a DNEPR launch vehicle from the Orenburg, Russia (OREN). Payloads include a variety of satellites, spacecraft, and rockets equipped with specific instruments for various scientific and technological missions. These include communications satellites like Starlink; space stations such as the ISS; scientific satellites like the Hubble; Earth observation satellites from companies like Planet Labs, Umbra, and HawkEye 360; GPS; miniature CubeSats for education and research; and military/defense satellites.

Not visible in the next 10 days
FLOCK 1C 8 details
Identifier
40040, 2014-033AG
Orbit
Decayed
Last TLE update2 weeks ago
Origin
Flag of USPlanet Labs (US)
ManufacturerPlanet Labs
MissionDecayed Commercial Imaging
Bus & MotorCUBESAT 3U, Unknown motor
Mass4.25 kg wet, 4.25 kg dry
Launch date (UTC)
2014-06-19 (11 years ago)
Launch vehicle
DNEPR
Launch site
Orenburg, Russia (OREN)
Object type
Payload
Rocket body
Debris
Shape & HBRBox + 2 Pan, 0.3 m
Radar Cross Section0.108 m², Small (<0.1 m²)

Expand to show TLE details & history

TLE from 2 weeks ago
0 FLOCK 1C 8
1 40040U 14033AG  24349.51121899  .16112920  30564-5  17446-2 0  9996
2 40040  98.0388  18.5335 0005492 235.1422 124.9358 16.37456129572415
Epoch: 2024-12-14T12:16Z
Definitive object data (Epoch: 2024-12-14T12:16:09.32Z)
Latitude-0.00006°
Longitude110.83288°
Altitude177.868 km
Speed7.798 km/s
True Right ascension01h 14m 08s
True Declination0° 00' 00"
Sunlit
Object was in full shadow at TLE epoch
Visualization observer readout
Observer readout values are unavailable because the object's trajectory could not be propagated. This is usually caused when the trajectory data is faulty or the object's orbit has decayed.
Visualization observer readout
Observer readout values are unavailable because the object's trajectory could not be propagated. This is usually caused when the trajectory data is faulty or the object's orbit has decayed.
Orbital elements
Apogee altitude173.015 km
Perigee altitude165.823 km
Semi-major axis6,547.556 km
Eccentricity0.0005492
Inclination98.0388°
RAAN18.5335°
Arg. of periapsis235.1422°
True anomaly124.98737°
Mean anomaly124.9358°
Eccentric anomaly124.96159°
Mean motion4.09661 °/min
BSTAR0.0017446
Orbital period87.88 mins
Loading maneuver chart data...
Loading historical data...
Loading historical data...
Loading historical data...
Loading historical data...
Loading historical data...
Loading historical data...
Loading historical data...

FLOCK 1C 8 Visibility forecast

Observer location: undefined°, undefined

This satellite is decayed
Span
Click to sort rows by Start time (UTC) header in descending order
Start Az.
Max El. time (UTC)
Max El. Az.
Max El.
End time (UTC)
End Az.
|